Time,TemperatureF,DewpointF,PressureIn,WindDirection,WindDirectionDegrees,WindSpeedMPH,WindSpeedGustMPH,Humidity,HourlyPrecipIn,Conditions,Clouds,dailyrainin,SoftwareType,DateUTC
2015-05-25 00:02:00,73.2,54.1,29.12,SW,225,0.0,2.0,51,0.00,,,0.00,WUHU216WMR200,2015-05-25 04:02:00,
2015-05-25 00:07:00,73.0,53.9,29.12,South,180,0.0,2.0,51,0.00,,,0.00,WUHU216WMR200,2015-05-25 04:07:00,
2015-05-25 00:12:00,73.0,53.9,29.12,SSE,157,1.1,2.5,51,0.00,,,0.00,WUHU216WMR200,2015-05-25 04:12:00,
2015-05-25 00:17:00,73.0,54.4,29.12,West,270,1.3,2.5,52,0.00,,,0.00,WUHU216WMR200,2015-05-25 04:17:00,
2015-05-25 00:22:00,72.9,54.3,29.12,South,180,0.9,2.2,52,0.00,,,0.00,WUHU216WMR200,2015-05-25 04:22:00,
2015-05-25 00:27:00,72.9,54.3,29.12,South,180,0.0,2.0,52,0.00,,,0.00,WUHU216WMR200,2015-05-25 04:27:00,
2015-05-25 00:32:00,72.9,54.3,29.12,South,180,0.0,2.5,52,0.00,,,0.00,WUHU216WMR200,2015-05-25 04:32:00,
2015-05-25 00:37:00,72.7,54.2,29.12,SSE,157,2.2,3.4,52,0.00,,,0.00,WUHU216WMR200,2015-05-25 04:37:00,
2015-05-25 00:42:00,72.7,54.7,29.12,SE,135,1.1,3.4,53,0.00,,,0.00,WUHU216WMR200,2015-05-25 04:42:00,
2015-05-25 00:47:00,72.9,54.9,29.12,SSE,157,2.5,3.1,53,0.00,,,0.00,WUHU216WMR200,2015-05-25 04:47:00,
2015-05-25 00:52:00,72.7,54.7,29.12,SSW,202,1.1,3.1,53,0.00,,,0.00,WUHU216WMR200,2015-05-25 04:52:00,
2015-05-25 00:57:00,72.7,54.7,29.12,SW,225,0.9,2.9,53,0.00,,,0.00,WUHU216WMR200,2015-05-25 04:57:00,
2015-05-25 01:02:00,72.5,54.5,29.12,SSE,157,1.1,3.1,53,0.00,,,0.00,WUHU216WMR200,2015-05-25 05:02:00,
2015-05-25 01:06:00,72.7,54.7,29.12,SSW,202,0.0,3.1,53,0.00,,,0.00,WUHU216WMR200,2015-05-25 05:06:00,
2015-05-25 01:11:00,72.7,55.2,29.12,WSW,247,2.0,2.9,54,0.00,,,0.00,WUHU216WMR200,2015-05-25 05:11:00,
2015-05-25 01:16:00,72.7,55.2,29.12,SSW,202,1.3,2.9,54,0.00,,,0.00,WUHU216WMR200,2015-05-25 05:16:00,
2015-05-25 01:21:00,72.9,55.4,29.12,West,270,2.5,2.5,54,0.00,,,0.00,WUHU216WMR200,2015-05-25 05:21:00,
2015-05-25 01:26:00,72.9,55.4,29.12,South,180,1.3,2.7,54,0.00,,,0.00,WUHU216WMR200,2015-05-25 05:26:00,
2015-05-25 01:31:00,72.9,55.4,29.12,SSW,202,2.0,3.4,54,0.00,,,0.00,WUHU216WMR200,2015-05-25 05:31:00,
2015-05-25 01:36:00,72.9,55.4,29.09,WSW,247,1.3,3.4,54,0.00,,,0.00,WUHU216WMR200,2015-05-25 05:36:00,
2015-05-25 01:41:00,72.9,55.4,29.09,SSW,202,0.0,2.9,54,0.00,,,0.00,WUHU216WMR200,2015-05-25 05:41:00,
2015-05-25 01:46:00,72.7,55.2,29.09,SW,225,1.6,2.7,54,0.00,,,0.00,WUHU216WMR200,2015-05-25 05:46:00,
2015-05-25 01:51:00,72.7,55.2,29.09,SSE,157,1.3,2.9,54,0.00,,,0.00,WUHU216WMR200,2015-05-25 05:51:00,
2015-05-25 01:56:00,72.7,55.2,29.09,WSW,247,2.2,3.4,54,0.00,,,0.00,WUHU216WMR200,2015-05-25 05:56:00,
2015-05-25 02:01:00,72.5,55.0,29.09,SE,135,1.1,3.4,54,0.00,,,0.00,WUHU216WMR200,2015-05-25 06:01:00,
2015-05-25 02:06:00,72.5,55.0,29.06,WSW,247,1.1,2.9,54,0.00,,,0.00,WUHU216WMR200,2015-05-25 06:06:00,
2015-05-25 02:11:00,72.5,55.0,29.06,WNW,292,0.0,3.1,54,0.00,,,0.00,WUHU216WMR200,2015-05-25 06:11:00,
2015-05-25 02:16:00,72.5,55.6,29.06,WSW,247,0.0,3.1,55,0.00,,,0.00,WUHU216WMR200,2015-05-25 06:16:00,
2015-05-25 02:21:00,72.5,55.6,29.09,SSE,157,2.5,2.5,55,0.00,,,0.00,WUHU216WMR200,2015-05-25 06:21:00,
2015-05-25 02:26:00,72.5,55.6,29.09,WSW,247,1.3,2.9,55,0.00,,,0.00,WUHU216WMR200,2015-05-25 06:26:00,
2015-05-25 02:31:00,72.5,55.6,29.09,SSE,157,1.6,2.9,55,0.00,,,0.00,WUHU216WMR200,2015-05-25 06:31:00,
2015-05-25 02:36:00,72.5,55.6,29.09,SSE,157,0.0,2.5,55,0.00,,,0.00,WUHU216WMR200,2015-05-25 06:36:00,
2015-05-25 02:41:00,72.5,56.1,29.09,SSW,202,1.1,2.5,56,0.00,,,0.00,WUHU216WMR200,2015-05-25 06:41:00,
2015-05-25 02:46:00,72.3,55.9,29.09,WSW,247,2.5,2.5,56,0.00,,,0.00,WUHU216WMR200,2015-05-25 06:46:00,
2015-05-25 02:51:00,72.1,55.7,29.09,WSW,247,1.6,2.5,56,0.00,,,0.00,WUHU216WMR200,2015-05-25 06:51:00,
2015-05-25 02:56:00,72.1,55.7,29.09,South,180,0.0,2.5,56,0.00,,,0.00,WUHU216WMR200,2015-05-25 06:56:00,
2015-05-25 03:01:00,72.0,56.1,29.09,South,180,1.3,2.0,57,0.00,,,0.00,WUHU216WMR200,2015-05-25 07:01:00,
2015-05-25 03:06:00,72.1,56.2,29.09,South,180,2.2,2.2,57,0.00,,,0.00,WUHU216WMR200,2015-05-25 07:06:00,
2015-05-25 03:11:00,72.1,56.2,29.09,SSW,202,0.0,2.2,57,0.00,,,0.00,WUHU216WMR200,2015-05-25 07:11:00,
2015-05-25 03:16:00,72.1,56.2,29.09,SSW,202,1.3,2.5,57,0.00,,,0.00,WUHU216WMR200,2015-05-25 07:16:00,
2015-05-25 03:21:00,72.1,56.2,29.09,SSW,202,0.0,2.5,57,0.00,,,0.00,WUHU216WMR200,2015-05-25 07:21:00,
2015-05-25 03:26:00,72.1,56.7,29.09,SSW,202,1.3,2.7,58,0.00,,,0.00,WUHU216WMR200,2015-05-25 07:26:00,
2015-05-25 03:31:00,72.1,56.7,29.09,WSW,247,1.3,3.4,58,0.00,,,0.00,WUHU216WMR200,2015-05-25 07:31:00,
2015-05-25 03:41:00,72.3,56.9,29.06,WSW,247,1.3,2.7,58,0.00,,,0.00,WUHU216WMR200,2015-05-25 07:41:00,
2015-05-25 03:46:00,72.3,56.9,29.06,WSW,247,3.4,3.4,58,0.00,,,0.00,WUHU216WMR200,2015-05-25 07:46:00,
2015-05-25 03:51:00,72.1,57.2,29.09,WSW,247,1.3,3.6,59,0.00,,,0.00,WUHU216WMR200,2015-05-25 07:51:00,
2015-05-25 03:56:00,72.1,57.2,29.09,SW,225,1.1,3.6,59,0.00,,,0.00,WUHU216WMR200,2015-05-25 07:56:00,
2015-05-25 04:01:00,72.0,57.1,29.09,SSW,202,2.0,2.7,59,0.00,,,0.00,WUHU216WMR200,2015-05-25 08:01:00,
2015-05-25 04:06:00,71.8,56.9,29.06,SSW,202,0.0,2.7,59,0.00,,,0.00,WUHU216WMR200,2015-05-25 08:06:00,
2015-05-25 04:11:00,71.8,57.4,29.06,SSW,202,1.6,2.9,60,0.00,,,0.00,WUHU216WMR200,2015-05-25 08:11:00,
2015-05-25 04:16:00,71.8,57.4,29.06,WSW,247,0.9,2.9,60,0.00,,,0.00,WUHU216WMR200,2015-05-25 08:16:00,
2015-05-25 04:21:00,71.8,57.4,29.09,SSW,202,1.3,2.7,60,0.00,,,0.00,WUHU216WMR200,2015-05-25 08:21:00,
2015-05-25 04:26:00,71.8,57.8,29.09,WSW,247,1.3,2.5,61,0.00,,,0.00,WUHU216WMR200,2015-05-25 08:26:00,
2015-05-25 04:31:00,72.0,58.0,29.09,SSW,202,1.1,2.5,61,0.00,,,0.00,WUHU216WMR200,2015-05-25 08:31:00,
2015-05-25 04:36:00,72.0,58.0,29.09,SW,225,1.3,2.5,61,0.00,,,0.00,WUHU216WMR200,2015-05-25 08:36:00,
2015-05-25 04:41:00,72.0,58.0,29.09,SW,225,2.9,2.9,61,0.00,,,0.00,WUHU216WMR200,2015-05-25 08:41:00,
2015-05-25 04:46:00,72.0,58.0,29.09,SSW,202,2.0,3.1,61,0.00,,,0.00,WUHU216WMR200,2015-05-25 08:46:00,
2015-05-25 04:51:00,71.8,57.8,29.09,SSW,202,1.6,3.1,61,0.00,,,0.00,WUHU216WMR200,2015-05-25 08:51:00,
2015-05-25 04:56:00,71.8,58.3,29.09,SSW,202,1.1,2.7,62,0.00,,,0.00,WUHU216WMR200,2015-05-25 08:56:00,
2015-05-25 05:01:00,72.0,58.5,29.09,WSW,247,0.9,3.4,62,0.00,,,0.00,WUHU216WMR200,2015-05-25 09:01:00,
2015-05-25 05:06:00,72.0,58.5,29.09,SSW,202,1.3,3.6,62,0.00,,,0.00,WUHU216WMR200,2015-05-25 09:06:00,
2015-05-25 05:11:00,72.0,58.5,29.09,SSW,202,1.3,3.6,62,0.00,,,0.00,WUHU216WMR200,2015-05-25 09:11:00,
2015-05-25 05:16:00,72.0,58.5,29.09,SSW,202,2.0,3.6,62,0.00,,,0.00,WUHU216WMR200,2015-05-25 09:16:00,
2015-05-25 05:21:00,72.0,58.5,29.09,WSW,247,1.6,4.3,62,0.00,,,0.00,WUHU216WMR200,2015-05-25 09:21:00,
2015-05-25 05:26:00,72.1,58.6,29.09,WSW,247,3.4,4.3,62,0.00,,,0.00,WUHU216WMR200,2015-05-25 09:26:00,
2015-05-25 05:31:00,72.1,58.6,29.09,SSW,202,1.6,4.0,62,0.00,,,0.00,WUHU216WMR200,2015-05-25 09:31:00,
2015-05-25 05:36:00,72.1,59.0,29.09,SSW,202,2.5,4.7,63,0.00,,,0.00,WUHU216WMR200,2015-05-25 09:36:00,
2015-05-25 05:41:00,72.1,59.0,29.09,WSW,247,2.7,5.4,63,0.00,,,0.00,WUHU216WMR200,2015-05-25 09:41:00,
2015-05-25 05:46:00,72.1,59.0,29.09,WSW,247,2.5,5.4,63,0.00,,,0.00,WUHU216WMR200,2015-05-25 09:46:00,
2015-05-25 05:51:00,72.1,59.0,29.09,SSE,157,1.6,4.9,63,0.00,,,0.00,WUHU216WMR200,2015-05-25 09:51:00,
2015-05-25 05:56:00,72.1,59.5,29.09,SSW,202,3.4,7.8,64,0.00,,,0.00,WUHU216WMR200,2015-05-25 09:56:00,
2015-05-25 06:01:00,72.1,59.5,29.09,WSW,247,3.4,7.8,64,0.00,,,0.00,WUHU216WMR200,2015-05-25 10:01:00,
2015-05-25 06:06:00,72.1,59.5,29.09,WSW,247,1.1,5.6,64,0.00,,,0.00,WUHU216WMR200,2015-05-25 10:06:00,
2015-05-25 06:11:00,71.8,60.0,29.09,SE,135,2.9,6.5,66,0.00,,,0.00,WUHU216WMR200,2015-05-25 10:11:00,
2015-05-25 06:16:00,71.6,60.3,29.09,SSW,202,2.7,7.4,67,0.00,,,0.00,WUHU216WMR200,2015-05-25 10:16:00,
2015-05-25 06:21:00,71.1,60.6,29.06,WSW,247,2.0,7.4,69,0.00,,,0.00,WUHU216WMR200,2015-05-25 10:21:00,
2015-05-25 06:26:00,70.9,60.8,29.06,WSW,247,1.3,4.7,70,0.00,,,0.00,WUHU216WMR200,2015-05-25 10:26:00,
2015-05-25 06:31:00,70.5,60.8,29.06,SSW,202,2.5,4.7,71,0.00,,,0.00,WUHU216WMR200,2015-05-25 10:31:00,
2015-05-25 06:36:00,70.5,60.8,29.09,SW,225,5.6,5.6,71,0.00,,,0.00,WUHU216WMR200,2015-05-25 10:36:00,
2015-05-25 06:41:00,70.3,61.0,29.09,SSW,202,2.7,5.6,72,0.00,,,0.00,WUHU216WMR200,2015-05-25 10:41:00,
2015-05-25 06:46:00,70.2,61.3,29.09,SSW,202,2.2,5.6,73,0.00,,,0.00,WUHU216WMR200,2015-05-25 10:46:00,
2015-05-25 06:51:00,70.2,61.3,29.09,SW,225,2.7,4.9,73,0.00,,,0.00,WUHU216WMR200,2015-05-25 10:51:00,
2015-05-25 06:56:00,70.2,61.7,29.09,SSW,202,1.3,4.3,74,0.00,,,0.00,WUHU216WMR200,2015-05-25 10:56:00,
2015-05-25 07:01:00,70.2,61.7,29.09,SSW,202,1.6,6.0,74,0.00,,,0.00,WUHU216WMR200,2015-05-25 11:01:00,
2015-05-25 07:06:00,70.2,62.0,29.09,WSW,247,2.5,6.0,75,0.00,,,0.00,WUHU216WMR200,2015-05-25 11:06:00,
2015-05-25 07:11:00,70.2,62.0,29.09,SSW,202,1.3,3.6,75,0.00,,,0.00,WUHU216WMR200,2015-05-25 11:11:00,
2015-05-25 07:16:00,70.2,62.0,29.09,SSW,202,2.2,3.8,75,0.00,,,0.00,WUHU216WMR200,2015-05-25 11:16:00,
2015-05-25 07:21:00,70.0,61.8,29.09,SSW,202,3.8,3.8,75,0.00,,,0.00,WUHU216WMR200,2015-05-25 11:21:00,
2015-05-25 07:26:00,70.0,61.8,29.09,SSW,202,1.1,4.3,75,0.00,,,0.00,WUHU216WMR200,2015-05-25 11:26:00,
2015-05-25 07:31:00,70.2,62.0,29.09,SSW,202,1.3,4.3,75,0.00,,,0.00,WUHU216WMR200,2015-05-25 11:31:00,
2015-05-25 07:36:00,70.2,62.4,29.09,SSW,202,2.5,3.6,76,0.00,,,0.00,WUHU216WMR200,2015-05-25 11:36:00,
2015-05-25 07:41:00,70.2,62.0,29.09,SSW,202,2.5,4.0,75,0.00,,,0.00,WUHU216WMR200,2015-05-25 11:41:00,
2015-05-25 07:46:00,70.2,62.4,29.09,SSW,202,3.4,4.0,76,0.00,,,0.00,WUHU216WMR200,2015-05-25 11:46:00,
2015-05-25 07:51:00,70.3,62.5,29.09,SSW,202,0.0,4.0,76,0.00,,,0.00,WUHU216WMR200,2015-05-25 11:51:00,
2015-05-25 07:56:00,70.3,62.5,29.09,SW,225,0.0,3.8,76,0.00,,,0.00,WUHU216WMR200,2015-05-25 11:56:00,
2015-05-25 08:01:00,70.3,62.5,29.09,WSW,247,1.6,3.6,76,0.00,,,0.00,WUHU216WMR200,2015-05-25 12:01:00,
2015-05-25 08:06:00,70.3,62.5,29.09,SSW,202,2.0,3.6,76,0.00,,,0.00,WUHU216WMR200,2015-05-25 12:06:00,
2015-05-25 08:11:00,70.3,62.5,29.09,West,270,2.9,3.8,76,0.00,,,0.00,WUHU216WMR200,2015-05-25 12:11:00,
2015-05-25 08:16:00,70.3,62.5,29.09,WSW,247,3.4,3.8,76,0.00,,,0.00,WUHU216WMR200,2015-05-25 12:16:00,
2015-05-25 08:21:00,70.3,62.9,29.09,WSW,247,0.9,3.4,77,0.00,,,0.00,WUHU216WMR200,2015-05-25 12:21:00,
2015-05-25 08:26:00,70.3,62.9,29.09,SW,225,1.3,3.8,77,0.00,,,0.00,WUHU216WMR200,2015-05-25 12:26:00,
2015-05-25 08:31:00,70.7,62.9,29.09,SW,225,1.3,3.8,76,0.00,,,0.00,WUHU216WMR200,2015-05-25 12:31:00,
2015-05-25 08:36:00,70.9,63.1,29.09,WSW,247,2.0,3.4,76,0.00,,,0.00,WUHU216WMR200,2015-05-25 12:36:00,
2015-05-25 08:41:00,70.9,63.4,29.09,WSW,247,2.5,3.8,77,0.00,,,0.00,WUHU216WMR200,2015-05-25 12:41:00,
2015-05-25 08:46:00,71.1,63.3,29.09,SW,225,3.4,3.8,76,0.00,,,0.00,WUHU216WMR200,2015-05-25 12:46:00,
2015-05-25 08:51:00,71.1,63.3,29.09,SSW,202,2.5,5.6,76,0.00,,,0.00,WUHU216WMR200,2015-05-25 12:51:00,
2015-05-25 08:56:00,71.1,63.3,29.09,SSW,202,3.1,5.6,76,0.00,,,0.00,WUHU216WMR200,2015-05-25 12:56:00,
2015-05-25 09:01:00,71.1,63.3,29.09,SW,225,2.7,4.7,76,0.00,,,0.00,WUHU216WMR200,2015-05-25 13:01:00,
2015-05-25 09:06:00,71.1,63.3,29.12,WSW,247,3.4,4.3,76,0.00,,,0.00,WUHU216WMR200,2015-05-25 13:06:00,
2015-05-25 09:11:00,71.2,63.0,29.12,SSW,202,3.1,4.3,75,0.00,,,0.00,WUHU216WMR200,2015-05-25 13:11:00,
2015-05-25 09:16:00,71.2,63.0,29.12,SW,225,4.9,5.4,75,0.00,,,0.00,WUHU216WMR200,2015-05-25 13:16:00,
2015-05-25 09:21:00,71.4,63.2,29.12,WSW,247,1.6,7.2,75,0.00,,,0.00,WUHU216WMR200,2015-05-25 13:21:00,
2015-05-25 09:26:00,71.4,62.8,29.12,WSW,247,2.0,7.2,74,0.00,,,0.00,WUHU216WMR200,2015-05-25 13:26:00,
2015-05-25 09:31:00,71.6,63.0,29.12,South,180,2.9,5.8,74,0.00,,,0.00,WUHU216WMR200,2015-05-25 13:31:00,
2015-05-25 09:36:00,71.6,63.0,29.12,SW,225,3.1,3.8,74,0.00,,,0.00,WUHU216WMR200,2015-05-25 13:36:00,
2015-05-25 09:41:00,71.6,63.0,29.12,WSW,247,3.8,5.6,74,0.00,,,0.00,WUHU216WMR200,2015-05-25 13:41:00,
2015-05-25 09:46:00,71.4,62.8,29.12,SSW,202,2.7,5.6,74,0.00,,,0.00,WUHU216WMR200,2015-05-25 13:46:00,
2015-05-25 09:51:00,71.2,62.6,29.12,SSW,202,3.1,4.0,74,0.00,,,0.00,WUHU216WMR200,2015-05-25 13:51:00,
2015-05-25 10:01:00,71.2,62.3,29.12,SW,225,2.5,6.7,73,0.00,,,0.00,WUHU216WMR200,2015-05-25 14:01:00,
2015-05-25 10:06:00,71.2,62.3,29.12,SW,225,1.6,6.0,73,0.00,,,0.00,WUHU216WMR200,2015-05-25 14:06:00,
2015-05-25 10:11:00,71.4,62.8,29.12,SW,225,1.3,5.4,74,0.00,,,0.00,WUHU216WMR200,2015-05-25 14:11:00,
2015-05-25 10:16:00,71.6,62.6,29.12,SW,225,2.5,5.4,73,0.00,,,0.00,WUHU216WMR200,2015-05-25 14:16:00,
2015-05-25 10:21:00,71.4,62.8,29.12,SSW,202,4.0,4.3,74,0.00,,,0.00,WUHU216WMR200,2015-05-25 14:21:00,
2015-05-25 10:26:00,71.2,62.6,29.12,SW,225,3.1,4.9,74,0.00,,,0.00,WUHU216WMR200,2015-05-25 14:26:00,
2015-05-25 10:31:00,71.4,62.8,29.12,SSW,202,2.2,5.4,74,0.00,,,0.00,WUHU216WMR200,2015-05-25 14:31:00,
2015-05-25 10:36:00,71.4,62.8,29.12,WSW,247,2.7,5.6,74,0.00,,,0.00,WUHU216WMR200,2015-05-25 14:36:00,
2015-05-25 10:41:00,71.8,62.8,29.12,SSW,202,2.9,7.6,73,0.00,,,0.00,WUHU216WMR200,2015-05-25 14:41:00,
2015-05-25 10:46:00,72.1,63.1,29.12,SW,225,2.0,7.6,73,0.00,,,0.00,WUHU216WMR200,2015-05-25 14:46:00,
2015-05-25 10:51:00,72.0,63.0,29.12,WSW,247,2.9,5.8,73,0.00,,,0.00,WUHU216WMR200,2015-05-25 14:51:00,
2015-05-25 10:55:00,71.8,62.8,29.12,SW,225,0.0,5.4,73,0.00,,,0.00,WUHU216WMR200,2015-05-25 14:55:00,
2015-05-25 11:00:00,71.8,62.8,29.12,SW,225,2.9,4.7,73,0.00,,,0.00,WUHU216WMR200,2015-05-25 15:00:00,
2015-05-25 11:05:00,71.8,62.8,29.12,SSW,202,2.5,4.7,73,0.00,,,0.00,WUHU216WMR200,2015-05-25 15:05:00,
2015-05-25 11:10:00,71.6,62.6,29.12,SSW,202,2.7,6.3,73,0.00,,,0.00,WUHU216WMR200,2015-05-25 15:10:00,
2015-05-25 11:15:00,71.6,62.6,29.12,West,270,2.9,6.3,73,0.00,,,0.00,WUHU216WMR200,2015-05-25 15:15:00,
2015-05-25 11:20:00,71.6,62.6,29.12,SSW,202,3.1,6.5,73,0.00,,,0.00,WUHU216WMR200,2015-05-25 15:20:00,
2015-05-25 11:25:00,71.6,63.0,29.12,WSW,247,2.9,6.5,74,0.00,,,0.00,WUHU216WMR200,2015-05-25 15:25:00,
2015-05-25 11:30:00,71.4,62.8,29.12,WSW,247,2.5,4.0,74,0.00,,,0.00,WUHU216WMR200,2015-05-25 15:30:00,
2015-05-25 11:35:00,71.4,62.8,29.15,WSW,247,1.1,6.0,74,0.00,,,0.00,WUHU216WMR200,2015-05-25 15:35:00,
2015-05-25 11:40:00,71.4,62.8,29.15,SW,225,6.5,6.5,74,0.00,,,0.00,WUHU216WMR200,2015-05-25 15:40:00,
2015-05-25 11:50:00,71.2,63.4,29.15,SSW,202,2.5,4.9,76,0.00,,,0.00,WUHU216WMR200,2015-05-25 15:50:00,
2015-05-25 11:55:00,71.2,63.7,29.15,WSW,247,2.2,7.6,77,0.00,,,0.00,WUHU216WMR200,2015-05-25 15:55:00,
2015-05-25 12:00:00,71.4,63.9,29.15,SW,225,3.1,7.6,77,0.00,,,0.00,WUHU216WMR200,2015-05-25 16:00:00,
2015-05-25 12:05:00,71.6,64.1,29.12,West,270,2.7,6.0,77,0.00,,,0.00,WUHU216WMR200,2015-05-25 16:05:00,
2015-05-25 12:10:00,71.8,64.3,29.12,WSW,247,2.7,4.3,77,0.00,,,0.00,WUHU216WMR200,2015-05-25 16:10:00,
2015-05-25 12:15:00,72.0,64.5,29.12,SW,225,1.3,4.3,77,0.00,,,0.00,WUHU216WMR200,2015-05-25 16:15:00,
2015-05-25 12:20:00,71.8,64.3,29.15,SSW,202,2.7,3.8,77,0.00,,,0.00,WUHU216WMR200,2015-05-25 16:20:00,
2015-05-25 12:25:00,71.8,64.7,29.15,SW,225,3.4,4.0,78,0.00,,,0.00,WUHU216WMR200,2015-05-25 16:25:00,
2015-05-25 12:30:00,71.6,64.5,29.15,SSW,202,2.2,4.9,78,0.00,,,0.00,WUHU216WMR200,2015-05-25 16:30:00,
2015-05-25 12:35:00,72.1,65.0,29.12,SSW,202,3.8,5.4,78,0.00,,,0.00,WUHU216WMR200,2015-05-25 16:35:00,
2015-05-25 12:40:00,72.7,65.6,29.12,SSW,202,3.1,5.4,78,0.00,,,0.00,WUHU216WMR200,2015-05-25 16:40:00,
2015-05-25 12:45:00,73.2,66.0,29.12,WSW,247,1.6,4.9,78,0.00,,,0.00,WUHU216WMR200,2015-05-25 16:45:00,
2015-05-25 12:50:00,74.1,66.6,29.12,SSW,202,1.3,4.9,77,0.00,,,0.00,WUHU216WMR200,2015-05-25 16:50:00,
2015-05-25 12:55:00,74.5,66.9,29.12,SSW,202,2.5,7.8,77,0.00,,,0.00,WUHU216WMR200,2015-05-25 16:55:00,
2015-05-25 13:00:00,74.3,66.4,29.12,SSW,202,2.7,7.8,76,0.00,,,0.00,WUHU216WMR200,2015-05-25 17:00:00,
2015-05-25 13:05:00,73.6,65.3,29.12,SSW,202,2.0,5.4,75,0.00,,,0.00,WUHU216WMR200,2015-05-25 17:05:00,
2015-05-25 13:10:00,73.6,65.7,29.12,SSW,202,4.0,6.0,76,0.00,,,0.00,WUHU216WMR200,2015-05-25 17:10:00,
2015-05-25 13:20:00,75.6,66.9,29.12,SSW,202,3.4,6.3,74,0.00,,,0.00,WUHU216WMR200,2015-05-25 17:20:00,
2015-05-25 13:25:00,76.1,67.0,29.12,SSW,202,2.5,6.3,73,0.00,,,0.00,WUHU216WMR200,2015-05-25 17:25:00,
2015-05-25 13:30:00,75.9,66.4,29.12,SSW,202,3.6,5.6,72,0.00,,,0.00,WUHU216WMR200,2015-05-25 17:30:00,
2015-05-25 13:35:00,76.6,67.1,29.12,WSW,247,3.1,6.0,72,0.00,,,0.00,WUHU216WMR200,2015-05-25 17:35:00,
2015-05-25 13:40:00,76.6,66.7,29.15,SSW,202,6.0,6.0,71,0.00,,,0.00,WUHU216WMR200,2015-05-25 17:40:00,
2015-05-25 13:45:00,76.5,66.2,29.15,SSW,202,3.1,6.9,70,0.00,,,0.00,WUHU216WMR200,2015-05-25 17:45:00,
2015-05-25 13:50:00,76.6,66.3,29.15,SSW,202,4.0,8.7,70,0.00,,,0.00,WUHU216WMR200,2015-05-25 17:50:00,
2015-05-25 13:55:00,76.8,66.5,29.15,WSW,247,3.4,8.7,70,0.00,,,0.00,WUHU216WMR200,2015-05-25 17:55:00,
2015-05-25 14:00:00,77.2,66.0,29.15,SW,225,6.3,7.2,68,0.00,,,0.00,WUHU216WMR200,2015-05-25 18:00:00,
2015-05-25 14:05:00,77.5,66.3,29.15,South,180,3.4,7.2,68,0.00,,,0.00,WUHU216WMR200,2015-05-25 18:05:00,
2015-05-25 14:10:00,77.4,66.2,29.15,SW,225,3.8,7.2,68,0.00,,,0.00,WUHU216WMR200,2015-05-25 18:10:00,
2015-05-25 14:15:00,77.4,66.2,29.15,SSW,202,1.6,5.6,68,0.00,,,0.00,WUHU216WMR200,2015-05-25 18:15:00,
2015-05-25 14:20:00,77.2,65.6,29.15,WSW,247,6.3,6.3,67,0.00,,,0.00,WUHU216WMR200,2015-05-25 18:20:00,
2015-05-25 14:25:00,77.4,66.2,29.15,SSW,202,4.9,7.8,68,0.00,,,0.00,WUHU216WMR200,2015-05-25 18:25:00,
2015-05-25 14:30:00,77.2,65.6,29.15,SW,225,3.6,7.8,67,0.00,,,0.00,WUHU216WMR200,2015-05-25 18:30:00,
2015-05-25 14:35:00,77.4,65.4,29.15,SW,225,3.6,7.6,66,0.00,,,0.00,WUHU216WMR200,2015-05-25 18:35:00,
2015-05-25 14:40:00,78.1,66.5,29.15,SW,225,2.7,8.1,67,0.00,,,0.00,WUHU216WMR200,2015-05-25 18:40:00,
2015-05-25 14:45:00,78.3,66.7,29.15,SW,225,2.7,8.1,67,0.00,,,0.00,WUHU216WMR200,2015-05-25 18:45:00,
2015-05-25 14:50:00,78.3,66.2,29.15,SSW,202,2.0,7.8,66,0.00,,,0.00,WUHU216WMR200,2015-05-25 18:50:00,
2015-05-25 14:55:00,79.3,67.2,29.15,SSW,202,4.0,7.8,66,0.00,,,0.00,WUHU216WMR200,2015-05-25 18:55:00,
2015-05-25 15:00:00,78.6,66.1,29.15,WSW,247,3.1,6.3,65,0.00,,,0.00,WUHU216WMR200,2015-05-25 19:00:00,
2015-05-25 15:05:00,79.0,66.5,29.15,WSW,247,4.0,8.1,65,0.00,,,0.00,WUHU216WMR200,2015-05-25 19:05:00,
2015-05-25 15:10:00,79.5,67.4,29.12,SSW,202,3.4,8.1,66,0.00,,,0.00,WUHU216WMR200,2015-05-25 19:10:00,
2015-05-25 15:15:00,79.0,66.5,29.12,West,270,3.8,4.9,65,0.00,,,0.00,WUHU216WMR200,2015-05-25 19:15:00,
2015-05-25 15:20:00,79.2,66.7,29.12,SSW,202,1.6,4.9,65,0.00,,,0.00,WUHU216WMR200,2015-05-25 19:20:00,
2015-05-25 15:25:00,78.8,65.8,29.12,SSW,202,1.3,4.9,64,0.00,,,0.00,WUHU216WMR200,2015-05-25 19:25:00,
2015-05-25 15:30:00,78.8,65.8,29.12,WSW,247,5.4,6.0,64,0.00,,,0.00,WUHU216WMR200,2015-05-25 19:30:00,
2015-05-25 15:35:00,78.8,65.4,29.12,SW,225,2.5,6.5,63,0.00,,,0.00,WUHU216WMR200,2015-05-25 19:35:00,
2015-05-25 15:40:00,79.0,66.0,29.12,SW,225,2.5,6.5,64,0.00,,,0.00,WUHU216WMR200,2015-05-25 19:40:00,
2015-05-25 15:45:00,79.3,66.3,29.12,WSW,247,3.8,7.2,64,0.00,,,0.00,WUHU216WMR200,2015-05-25 19:45:00,
2015-05-25 15:50:00,79.3,65.4,29.12,SW,225,1.6,7.2,62,0.00,,,0.00,WUHU216WMR200,2015-05-25 19:50:00,
2015-05-25 15:55:00,79.2,65.3,29.12,SSW,202,4.0,6.0,62,0.00,,,0.00,WUHU216WMR200,2015-05-25 19:55:00,
2015-05-25 16:00:00,79.3,65.4,29.12,SW,225,3.4,6.0,62,0.00,,,0.00,WUHU216WMR200,2015-05-25 20:00:00,
2015-05-25 16:05:00,79.3,65.4,29.12,West,270,3.4,5.4,62,0.00,,,0.00,WUHU216WMR200,2015-05-25 20:05:00,
2015-05-25 16:10:00,79.3,65.4,29.12,SW,225,6.3,6.3,62,0.00,,,0.00,WUHU216WMR200,2015-05-25 20:10:00,
2015-05-25 16:15:00,79.7,65.8,29.12,WSW,247,2.7,7.4,62,0.00,,,0.00,WUHU216WMR200,2015-05-25 20:15:00,
2015-05-25 16:20:00,79.7,65.8,29.12,SSW,202,3.4,7.4,62,0.00,,,0.00,WUHU216WMR200,2015-05-25 20:20:00,
2015-05-25 16:25:00,79.2,64.8,29.12,WSW,247,2.0,6.3,61,0.00,,,0.00,WUHU216WMR200,2015-05-25 20:25:00,
2015-05-25 16:30:00,79.5,65.6,29.12,SSW,202,2.5,6.3,62,0.00,,,0.00,WUHU216WMR200,2015-05-25 20:30:00,
2015-05-25 16:35:00,79.5,65.1,29.12,SW,225,3.1,5.8,61,0.00,,,0.00,WUHU216WMR200,2015-05-25 20:35:00,
2015-05-25 16:40:00,79.9,65.0,29.03,WSW,247,5.6,5.8,60,0.00,,,0.00,WUHU216WMR200,2015-05-25 20:40:00,
2015-05-25 16:45:00,79.7,64.8,29.03,SW,225,2.9,5.8,60,0.00,,,0.00,WUHU216WMR200,2015-05-25 20:45:00,
2015-05-25 16:50:00,79.3,64.4,29.03,SW,225,4.0,5.6,60,0.00,,,0.00,WUHU216WMR200,2015-05-25 20:50:00,
2015-05-25 16:55:00,79.3,64.4,29.12,SW,225,3.1,8.1,60,0.00,,,0.00,WUHU216WMR200,2015-05-25 20:55:00,
2015-05-25 17:00:00,79.5,65.1,29.12,SW,225,1.3,8.1,61,0.00,,,0.00,WUHU216WMR200,2015-05-25 21:00:00,
2015-05-25 17:05:00,79.2,64.8,29.12,WSW,247,2.0,4.0,61,0.00,,,0.00,WUHU216WMR200,2015-05-25 21:05:00,
2015-05-25 17:10:00,79.0,64.6,29.12,SW,225,2.9,4.3,61,0.00,,,0.00,WUHU216WMR200,2015-05-25 21:10:00,
2015-05-25 17:15:00,78.8,64.4,29.12,WSW,247,3.6,4.3,61,0.00,,,0.00,WUHU216WMR200,2015-05-25 21:15:00,
2015-05-25 17:20:00,78.6,64.3,29.12,WSW,247,2.0,7.6,61,0.00,,,0.00,WUHU216WMR200,2015-05-25 21:20:00,
2015-05-25 17:25:00,78.6,64.3,29.12,WSW,247,2.7,8.5,61,0.00,,,0.00,WUHU216WMR200,2015-05-25 21:25:00,
2015-05-25 17:30:00,78.3,64.0,29.12,SSW,202,3.4,8.5,61,0.00,,,0.00,WUHU216WMR200,2015-05-25 21:30:00,
2015-05-25 17:35:00,78.1,64.3,29.12,SW,225,1.6,5.6,62,0.00,,,0.00,WUHU216WMR200,2015-05-25 21:35:00,
2015-05-25 17:40:00,78.3,64.4,29.12,SSW,202,3.4,5.6,62,0.00,,,0.00,WUHU216WMR200,2015-05-25 21:40:00,
2015-05-25 17:45:00,78.1,64.3,29.12,West,270,2.7,4.0,62,0.00,,,0.00,WUHU216WMR200,2015-05-25 21:45:00,
2015-05-25 17:50:00,77.9,64.1,29.12,SSW,202,2.7,4.7,62,0.00,,,0.00,WUHU216WMR200,2015-05-25 21:50:00,
2015-05-25 17:55:00,77.7,63.4,29.12,WSW,247,3.4,4.7,61,0.00,,,0.00,WUHU216WMR200,2015-05-25 21:55:00,
2015-05-25 18:00:00,78.1,64.3,29.12,SSW,202,2.2,4.7,62,0.00,,,0.00,WUHU216WMR200,2015-05-25 22:00:00,
2015-05-25 18:05:00,78.1,64.3,29.12,WSW,247,2.5,4.7,62,0.00,,,0.00,WUHU216WMR200,2015-05-25 22:05:00,
2015-05-25 18:10:00,77.9,63.6,29.12,SSW,202,0.9,5.4,61,0.00,,,0.00,WUHU216WMR200,2015-05-25 22:10:00,
2015-05-25 18:15:00,78.1,63.8,29.12,WSW,247,3.6,7.4,61,0.00,,,0.00,WUHU216WMR200,2015-05-25 22:15:00,
2015-05-25 18:20:00,77.9,63.6,29.12,WSW,247,1.6,7.4,61,0.00,,,0.00,WUHU216WMR200,2015-05-25 22:20:00,
2015-05-25 18:25:00,77.7,63.4,29.12,SW,225,2.5,5.8,61,0.00,,,0.00,WUHU216WMR200,2015-05-25 22:25:00,
2015-05-25 18:30:00,77.4,63.1,29.12,SSW,202,2.0,4.3,61,0.00,,,0.00,WUHU216WMR200,2015-05-25 22:30:00,
2015-05-25 18:35:00,77.2,62.9,29.12,West,270,2.5,4.3,61,0.00,,,0.00,WUHU216WMR200,2015-05-25 22:35:00,
2015-05-25 18:40:00,77.2,62.9,29.12,SSW,202,2.7,4.0,61,0.00,,,0.00,WUHU216WMR200,2015-05-25 22:40:00,
2015-05-25 18:45:00,77.2,62.9,29.12,SSW,202,4.9,4.9,61,0.00,,,0.00,WUHU216WMR200,2015-05-25 22:45:00,
2015-05-25 18:50:00,77.2,63.4,29.12,SSW,202,1.3,4.9,62,0.00,,,0.00,WUHU216WMR200,2015-05-25 22:50:00,
2015-05-25 18:55:00,77.0,63.2,29.12,WSW,247,2.9,4.7,62,0.00,,,0.00,WUHU216WMR200,2015-05-25 22:55:00,
2015-05-25 19:00:00,76.8,63.5,29.12,SSW,202,1.6,3.6,63,0.00,,,0.00,WUHU216WMR200,2015-05-25 23:00:00,
2015-05-25 19:05:00,76.8,63.5,29.12,WSW,247,2.5,4.0,63,0.00,,,0.00,WUHU216WMR200,2015-05-25 23:05:00,
2015-05-25 19:10:00,76.8,63.5,29.12,SSW,202,2.2,4.0,63,0.00,,,0.00,WUHU216WMR200,2015-05-25 23:10:00,
2015-05-25 19:15:00,76.5,63.6,29.12,SSW,202,1.3,3.6,64,0.00,,,0.00,WUHU216WMR200,2015-05-25 23:15:00,
2015-05-25 19:20:00,76.3,63.5,29.12,SSW,202,3.4,3.6,64,0.00,,,0.00,WUHU216WMR200,2015-05-25 23:20:00,
2015-05-25 19:25:00,76.1,63.3,29.12,WSW,247,1.6,4.9,64,0.00,,,0.00,WUHU216WMR200,2015-05-25 23:25:00,
2015-05-25 19:30:00,76.1,63.3,29.12,SSW,202,0.9,5.8,64,0.00,,,0.00,WUHU216WMR200,2015-05-25 23:30:00,
2015-05-25 19:35:00,76.1,63.3,29.12,SSW,202,1.6,5.8,64,0.00,,,0.00,WUHU216WMR200,2015-05-25 23:35:00,
2015-05-25 19:40:00,76.1,63.7,29.12,SSW,202,1.6,3.8,65,0.00,,,0.00,WUHU216WMR200,2015-05-25 23:40:00,
2015-05-25 19:45:00,76.1,63.7,29.12,SW,225,2.0,3.8,65,0.00,,,0.00,WUHU216WMR200,2015-05-25 23:45:00,
2015-05-25 19:50:00,75.9,63.5,29.12,SSW,202,1.6,3.8,65,0.00,,,0.00,WUHU216WMR200,2015-05-25 23:50:00,
2015-05-25 19:55:00,75.9,63.5,29.12,SW,225,0.9,2.5,65,0.00,,,0.00,WUHU216WMR200,2015-05-25 23:55:00,
2015-05-25 20:00:00,75.6,63.2,29.12,WSW,247,1.6,3.6,65,0.00,,,0.00,WUHU216WMR200,2015-05-26 00:00:00,
2015-05-25 20:05:00,75.4,63.0,29.12,SSW,202,0.0,3.6,65,0.00,,,0.00,WUHU216WMR200,2015-05-26 00:05:00,
2015-05-25 20:10:00,75.2,62.8,29.09,SSW,202,0.9,3.6,65,0.00,,,0.00,WUHU216WMR200,2015-05-26 00:10:00,
2015-05-25 20:15:00,75.0,63.1,29.09,SW,225,1.6,4.0,66,0.00,,,0.00,WUHU216WMR200,2015-05-26 00:15:00,
2015-05-25 20:20:00,75.0,63.1,29.09,SSW,202,2.2,4.0,66,0.00,,,0.00,WUHU216WMR200,2015-05-26 00:20:00,
2015-05-25 20:25:00,75.0,63.1,29.12,WSW,247,1.6,4.0,66,0.00,,,0.00,WUHU216WMR200,2015-05-26 00:25:00,
2015-05-25 20:30:00,74.7,62.8,29.12,SW,225,2.5,3.1,66,0.00,,,0.00,WUHU216WMR200,2015-05-26 00:30:00,
2015-05-25 20:35:00,74.7,62.8,29.12,SW,225,2.5,3.1,66,0.00,,,0.00,WUHU216WMR200,2015-05-26 00:35:00,
2015-05-25 20:40:00,74.5,62.6,29.09,SW,225,2.0,3.1,66,0.00,,,0.00,WUHU216WMR200,2015-05-26 00:40:00,
2015-05-25 20:45:00,74.5,62.6,29.09,SW,225,1.6,3.1,66,0.00,,,0.00,WUHU216WMR200,2015-05-26 00:45:00,
2015-05-25 20:50:00,74.3,62.4,29.09,SW,225,0.0,3.4,66,0.00,,,0.00,WUHU216WMR200,2015-05-26 00:50:00,
2015-05-25 20:55:00,74.3,62.8,29.12,SSW,202,0.0,3.4,67,0.00,,,0.00,WUHU216WMR200,2015-05-26 00:55:00,